[[{"header":{"parameterUnit":"m.s-1","parameterCategory":1,"la1":30.2991,"la2":30.254,"lo1":-89.0895,"lo2":-89.0444,"dy":0.0017,"dx":0.0017,"nx":28,"ny":28,"refTime":"2025-06-19T21:00:00:Z","depth":0,"parameterNumber":2,"parameterNumberName":"U-component_of_WINDS"},"data":[0,0,0,0,0,0,0,0,0,0,0,0,0,0,0,0,0,0,0,0,0,0,0,0,0,0,0,0,0,0,0,0,0,0,0,0,0,0,0,0,0,0,0,0,0,0,0,0,0,0,0,0,0,0,0,0,0,0,1.5792,1.5792,0,1.5813,1.5813,1.5813,1.569,1.5686,1.5683,1.5679,1.5714,1.5718,1.5723,0,0,0,0,0,0,0,0,0,0,0,0,0,1.5653,1.5656,1.5792,1.5792,1.5792,1.5813,1.5813,1.5813,1.5691,1.5686,1.5682,1.5678,1.5713,1.5718,1.5723,0,0,0,0,0,0,0,0,0,0,0,0,0,1.5698,1.5657,1.5791,1.5733,1.5728,1.5813,1.5813,1.5813,1.5691,1.5686,1.5681,1.5676,1.5711,1.5717,1.5724,1.587,0,0,1.5743,1.5746,0,0,0,0,0,0,0,0,1.5696,1.5703,1.5741,1.5737,1.5731,1.5743,1.5777,1.5833,1.5693,1.5706,1.5679,1.5673,1.5729,1.5734,1.575,1.5871,1.5873,1.5744,1.5748,1.575,1.5752,0,0,0,0,0,0,0,1.5693,1.5702,1.58,1.5742,1.5736,1.5708,1.5709,1.5787,1.5748,1.5704,1.5695,1.5699,1.5725,1.5744,1.575,1.5873,1.5743,1.5749,1.5753,1.5756,1.6112,1.6117,0,0,0,0,0,0,1.5696,1.57,1.58,1.5801,1.57,1.5715,1.5716,1.5745,1.5746,1.5741,1.5703,1.5693,1.5736,1.5742,1.575,1.5919,1.575,1.5756,1.576,1.6106,1.6113,1.6119,0,0,0,0,0,0,1.5693,1.5706,1.5799,1.5748,1.5757,1.5723,1.5757,1.5748,1.5766,1.5745,1.5739,1.5729,1.5732,1.5741,1.5839,1.5918,1.5759,1.5765,1.61,1.6109,1.6116,1.6259,0,0,0,0,0,0,1.569,1.5706,1.5759,1.575,1.5761,1.5885,1.5762,1.5752,1.5776,1.5763,1.5767,1.5763,1.5728,1.583,1.5845,1.5924,1.577,1.6093,1.6104,1.6114,1.6247,1.6271,1.6292,0,0,0,0,0,1.5685,1.5802,1.5763,1.5775,1.5826,1.589,1.5896,1.585,1.5783,1.5837,1.5823,1.5763,1.5907,1.5841,1.5857,1.594,1.6087,1.6101,1.6113,1.6237,1.6267,1.6292,0,0,0,0,0,0,1.5828,1.58,1.5756,1.5873,1.5884,1.5869,1.5936,1.5883,1.5917,1.5904,1.5849,1.5851,1.5958,1.5958,1.5886,1.6079,1.5986,1.6003,1.6075,1.6103,1.6125,1.6123,1.5775,0,0,0,0,0,1.5872,1.5923,1.5897,1.6003,1.601,1.5972,1.5998,1.5961,1.5972,1.5978,1.5971,1.5987,1.6035,1.6069,1.6113,1.6246,1.6245,1.631,1.6332,1.6351,1.6367,1.6435,1.6463,1.6161,1.6161,1.6161,0,0,1.5966,1.5957,1.5993,1.6031,1.6035,1.6091,1.5978,1.6043,1.6084,1.5989,1.6079,1.6074,1.6089,1.6204,1.6255,1.6208,1.6449,1.6367,1.6382,1.6388,1.6451,1.6479,1.6505,1.617,1.6168,1.6167,0,0,1.6164,1.6162,1.6248,1.6253,1.6258,1.6232,1.6252,1.6244,1.6236,1.6324,1.6252,1.6302,1.6388,1.6399,1.6417,1.6614,1.656,1.663,1.6749,1.6816,1.684,1.686,1.693,1.6956,1.6646,1.6646,1.6646,0,1.6281,1.6359,1.6301,1.6368,1.6387,1.6296,1.6384,1.6393,1.6415,1.6431,1.6377,1.6478,1.6482,1.6597,1.6644,1.6662,1.6684,1.6631,1.684,1.686,1.6879,1.6945,1.6971,1.6654,1.6653,1.6653,1.6652,0,1.6501,1.6556,1.6626,1.6642,1.6668,1.6747,1.6701,1.6736,1.6694,1.6674,1.6764,1.6764,1.6805,1.6829,1.6793,1.6939,1.6909,1.6849,1.6754,1.6917,1.6978,1.7003,1.6666,1.6663,1.6661,1.6659,0,0,1.6795,1.6773,1.6799,1.6804,1.6801,1.6844,1.6918,1.6951,1.6981,1.6999,1.7059,1.713,1.7072,1.7092,1.7055,1.7114,1.7268,1.7046,1.7045,1.7087,1.7428,1.7474,1.7504,1.7231,1.7235,1.7239,1.7427,0,1.6987,1.7107,1.7054,1.7181,1.7231,1.7143,1.7207,1.7213,1.7195,1.7237,1.7218,1.7269,1.7189,1.7199,1.7253,1.7238,1.7336,1.7224,1.7289,1.7292,1.7289,1.7536,1.7586,1.7763,1.745,1.7454,1.7457,0,1.7229,1.725,1.738,1.7363,1.7382,1.744,1.7465,1.7505,1.7511,1.7493,1.7512,1.7461,1.7533,1.7437,1.7536,1.7461,1.7484,1.748,1.7486,1.7492,1.7386,1.7549,1.7819,1.7846,1.7494,1.7491,1.7489,0,1.7429,1.7489,1.7573,1.7581,1.7565,1.7607,1.7603,1.7602,1.7625,1.7648,1.7662,1.7695,1.7714,1.7742,1.7701,1.7635,1.7806,1.7707,1.7796,1.7797,1.7838,1.7836,1.8115,1.7852,1.7851,1.7851,1.785,0,1.765,1.7733,1.7662,1.7715,1.7805,1.7743,1.7835,1.7822,1.7821,1.7871,1.7799,1.7848,1.779,1.7835,1.7804,1.789,1.79,1.7889,1.788,1.7896,1.7897,1.7912,1.7899,1.7858,1.7856,1.7855,1.7854,0,1.789,1.7845,1.7931,1.7906,1.7902,1.7969,1.7949,1.7998,1.7972,1.8035,1.8047,1.8009,1.8056,1.8017,1.8066,1.8044,1.8158,1.8132,1.8155,1.8148,1.8238,1.8231,1.8538,1.8575,1.8287,1.829,1.8292,0,1.8034,1.8095,1.8074,1.8099,1.8098,1.8141,1.8162,1.8104,1.8129,1.8136,1.8184,1.8223,1.8252,1.8332,1.8311,1.8347,1.8321,1.8426,1.8327,1.8339,1.8322,1.8319,1.8325,1.8447,1.8451,1.8453,1.8456,0,1.8295,1.8269,1.8299,1.8321,1.8346,1.8362,1.8373,1.8399,1.8339,1.8371,1.8415,1.8437,1.8482,1.8523,1.855,1.8549,1.8494,1.8486,1.8508,1.8526,1.8537,1.8532,1.8211,1.848,1.8478,1.8476,1.8475,1.8474,1.8492,1.854,1.8531,1.8567,1.8567,1.8578,1.862,1.8597,1.8632,1.8661,1.8625,1.8679,1.868,1.871,1.8715,1.8758,1.8715,1.8748,1.8756,1.8765,1.8777,1.8528,1.8763,1.8762,1.8761,1.8761,1.876,0,1.8748,1.8737,1.877,1.8783,1.8812,1.875,1.8758,1.8786,1.8833,1.8837,1.8864,1.8914,1.8952,1.8931,1.8965,1.9003,1.8978,1.9014,1.9012,1.9012,1.8815,1.8792,1.9033,1.9033,1.9033,1.9033,1.9033,1.9033,1.8885,1.8963,1.8935,1.9012,1.9001,1.905,1.9059,1.9069,1.907,1.9128,1.9157,1.914,1.9134,1.9165,1.9198,1.9191,1.9207,1.9252,1.9236,1.9053,1.9026,1.9001,1.8979,1.9256,1.9256,1.9429,1.9431,1.9432]},{"header":{"parameterUnit":"m.s-1","parameterCategory":1,"la1":30.2991,"la2":30.254,"lo1":-89.0895,"lo2":-89.0444,"dy":0.0017,"dx":0.0017,"nx":28,"ny":28,"refTime":"2025-06-19T21:00:00:Z","depth":0,"parameterNumber":3,"parameterNumberName":"V-component_of_WINDS"},"data":[0,0,0,0,0,0,0,0,0,0,0,0,0,0,0,0,0,0,0,0,0,0,0,0,0,0,0,0,0,0,0,0,0,0,0,0,0,0,0,0,0,0,0,0,0,0,0,0,0,0,0,0,0,0,0,0,0,0,3.9,3.9,0,3.9002,3.9002,3.9002,3.8934,3.8932,3.893,3.8928,3.893,3.8932,3.8934,0,0,0,0,0,0,0,0,0,0,0,0,0,3.8934,3.8936,3.9,3.9,3.9,3.9002,3.9002,3.9002,3.8934,3.8932,3.893,3.8928,3.893,3.8932,3.8934,0,0,0,0,0,0,0,0,0,0,0,0,0,3.8952,3.8936,3.9,3.8966,3.8963,3.9002,3.9002,3.9002,3.8935,3.8932,3.8929,3.8926,3.8929,3.8932,3.8934,3.9005,0,0,3.8942,3.8943,0,0,0,0,0,0,0,0,3.8951,3.8955,3.8971,3.8969,3.8965,3.8965,3.898,3.9003,3.8935,3.8945,3.8928,3.8925,3.8944,3.8945,3.8952,3.9006,3.9006,3.8942,3.8944,3.8945,3.8946,0,0,0,0,0,0,0,3.895,3.8954,3.9001,3.8972,3.8968,3.895,3.895,3.8984,3.896,3.8944,3.8939,3.8941,3.8942,3.8949,3.8951,3.9006,3.8942,3.8945,3.8946,3.8947,3.9115,3.9117,0,0,0,0,0,0,3.8954,3.8954,3.9001,3.9001,3.8952,3.8954,3.8953,3.8968,3.896,3.8956,3.8943,3.8937,3.8946,3.8948,3.8951,3.9031,3.8945,3.8948,3.8949,3.9112,3.9115,3.9118,0,0,0,0,0,0,3.8953,3.8959,3.9001,3.8976,3.898,3.8958,3.8975,3.8969,3.8977,3.8958,3.8954,3.8955,3.8944,3.8947,3.8992,3.903,3.8949,3.8951,3.9109,3.9113,3.9117,3.9194,0,0,0,0,0,0,3.8951,3.8959,3.8986,3.8977,3.8982,3.9042,3.8977,3.8971,3.8981,3.8974,3.8969,3.8965,3.8942,3.8988,3.8994,3.9033,3.8953,3.9105,3.911,3.9116,3.9188,3.9201,3.9211,0,0,0,0,0,3.8949,3.9009,3.8988,3.8994,3.9016,3.9045,3.9047,3.902,3.8985,3.9012,3.9,3.8965,3.9026,3.8993,3.9,3.9039,3.9102,3.9109,3.9115,3.9183,3.9198,3.9211,0,0,0,0,0,0,3.9023,3.9007,3.8984,3.9042,3.9045,3.9033,3.9066,3.9037,3.905,3.9043,3.9008,3.9008,3.9057,3.9053,3.9017,3.9106,3.9058,3.9066,3.9107,3.9121,3.9133,3.9132,3.8955,0,0,0,0,0,3.9046,3.9072,3.9056,3.9109,3.9112,3.9089,3.9101,3.9079,3.9081,3.9082,3.9073,3.9076,3.9095,3.9108,3.9125,3.9188,3.9184,3.9218,3.923,3.9239,3.9246,3.9276,3.929,3.914,3.914,3.9139,0,0,3.9094,3.9089,3.9107,3.9124,3.9123,3.9149,3.909,3.9121,3.9139,3.9086,3.9127,3.9121,3.9121,3.9174,3.9197,3.9172,3.9287,3.9248,3.9255,3.9257,3.9284,3.9298,3.9311,3.9144,3.9143,3.9143,0,0,3.9194,3.9194,3.9236,3.9237,3.9237,3.9221,3.9232,3.9223,3.9217,3.9257,3.9217,3.9238,3.9273,3.9274,3.9279,3.9378,3.9346,3.9385,3.9445,3.9475,3.9486,3.9497,3.9529,3.9542,3.9392,3.9392,3.9392,0,3.9254,3.9292,3.9262,3.9294,3.9302,3.9255,3.9296,3.9299,3.9305,3.931,3.9283,3.9323,3.9321,3.9372,3.9396,3.9403,3.9412,3.9384,3.9487,3.9497,3.9506,3.9537,3.955,3.9397,3.9396,3.9396,3.9395,0,3.9363,3.939,3.9424,3.943,3.9442,3.9479,3.9453,3.9469,3.9446,3.9433,3.9473,3.9468,3.9482,3.9493,3.9472,3.9541,3.9525,3.9493,3.9443,3.9526,3.9554,3.9565,3.9403,3.9401,3.94,3.9399,0,0,3.951,3.9498,3.951,3.9511,3.9507,3.9527,3.9561,3.9574,3.9587,3.9592,3.9619,3.9649,3.9618,3.9624,3.9602,3.9629,3.9704,3.9593,3.9592,3.9611,3.9777,3.9799,3.9813,3.9683,3.9686,3.9687,3.9776,0,3.9605,3.9662,3.9635,3.9695,3.9718,3.9673,3.9702,3.9703,3.9691,3.9708,3.9695,3.9716,3.9675,3.9678,3.9703,3.969,3.9736,3.9683,3.9706,3.9707,3.9705,3.9828,3.9853,3.9936,3.9787,3.9789,3.979,0,3.9723,3.9732,3.9794,3.9783,3.9792,3.9819,3.9827,3.9845,3.9843,3.9833,3.9839,3.9811,3.9842,3.9794,3.9836,3.9801,3.9809,3.9804,3.9806,3.9806,3.9752,3.9829,3.9963,3.9974,3.9808,3.9806,3.9805,0,3.982,3.9848,3.9888,3.989,3.988,3.9899,3.9896,3.9892,3.99,3.9908,3.9913,3.9925,3.9931,3.994,3.9916,3.9883,3.996,3.9911,3.9951,3.9951,3.9967,3.9966,4.0102,3.9977,3.9977,3.9976,3.9976,0,3.9927,3.9966,3.9931,3.9955,3.9997,3.9965,4.0007,3.9999,3.9996,4.0017,3.998,4.0,3.9967,3.9984,3.9966,4.0002,4.0006,3.9997,3.9991,3.9999,3.9999,4.0002,3.9994,3.998,3.9979,3.9978,3.9978,0,4.0042,4.002,4.006,4.0046,4.0043,4.0074,4.0062,4.0083,4.0069,4.0096,4.0101,4.0078,4.0096,4.0073,4.0089,4.0076,4.0125,4.0112,4.0125,4.012,4.0161,4.0156,4.0301,4.0317,4.0184,4.0185,4.0186,0,4.011,4.0139,4.0128,4.0139,4.0137,4.0156,4.0164,4.0134,4.0144,4.0144,4.0165,4.018,4.019,4.0221,4.0205,4.0217,4.0202,4.0252,4.0204,4.021,4.02,4.0197,4.0199,4.0261,4.0263,4.0264,4.0265,0,4.0234,4.0221,4.0234,4.0243,4.0253,4.0259,4.0263,4.0274,4.0242,4.0256,4.0273,4.0281,4.0296,4.0311,4.0318,4.0314,4.0284,4.0281,4.029,4.0297,4.0303,4.0298,4.0149,4.0277,4.0276,4.0275,4.0274,4.0274,4.0325,4.0347,4.0342,4.0357,4.0356,4.0359,4.0378,4.0365,4.0379,4.0389,4.0371,4.0392,4.0389,4.0396,4.0395,4.0411,4.0389,4.0404,4.0407,4.041,4.0415,4.0302,4.0413,4.0412,4.0412,4.0412,4.0411,0,4.0444,4.0438,4.0452,4.0457,4.0468,4.0439,4.0441,4.0452,4.0471,4.0471,4.0481,4.05,4.0513,4.0499,4.051,4.0525,4.0512,4.0529,4.0526,4.0525,4.0435,4.0425,4.054,4.054,4.0539,4.0539,4.0539,4.0539,4.0507,4.0541,4.0528,4.0561,4.0555,4.0575,4.0578,4.058,4.0579,4.0602,4.0613,4.0603,4.0596,4.0606,4.0617,4.0612,4.0617,4.0638,4.0629,4.0545,4.0532,4.052,4.051,4.064,4.0641,4.0717,4.0718,4.0718]}]]